Weather Roundup
Issued by NWS Chicago, IL

Home | Current Version | Previous Version | Graphics & Text | Print | Product List | Glossary On
Versions: 1 2 3 4 5 6 7 8 9 10 11 12 13 14 15 16 17 18 19 20 21 22 23 24 25 26 27 28 29 30 31 32 33 34 35 36 37 38 39 40 41 42 43 44 45 46 47 48 49 50
000
NZUS59 KLOT 310510
HRRLOT

CHICAGO AREA WEATHER ROUNDUP
NATIONAL WEATHER SERVICE CHICAGO/ROMEOVILLE IL
1200 AM CDT SUN AUG 31 2014

NOTE: "FAIR" INDICATES FEW OR NO CLOUDS BELOW 12,000 FEET WITH NO
SIGNIFICANT WEATHER AND/OR OBSTRUCTIONS TO VISIBILITY.

* THESE STATIONS ARE NOT UNDER NWS QUALITY CONTROL. THEY ALSO MAY NOT
  REPORT WEATHER SUCH AS PRECIPITATION OR FOG.

ILZ005-006-012>014-019>023-310600-
NORTHEAST ILLINOIS

CITY           SKY/WX    TMP DP  RH WIND       PRES   REMARKS
OHARE          MOCLDY    73  64  73 CALM      29.92R
MIDWAY         MOCLDY    75  70  84 SW9       29.92R
AURORA         PTCLDY    67  64  90 CALM      29.92S
LANSING*         N/A    N/A N/A N/A MISG        N/A
JOLIET*        MOCLDY    70  67  90 S3        29.93F
WAUKEGAN       PTCLDY    68  64  87 SW5       29.90R
DUPAGE AIRPORT PTCLDY    69  65  86 W3        29.92R
WHEELING       PTCLDY    73  65  75 S3        29.92R
KANKAKEE*      CLOUDY    66  63  90 SW6       29.94R THUNDER
MORRIS*        MOCLDY    70  70 100 CALM      29.92F
LEWIS AIRPORT* MOCLDY    69  68  98 SW3       29.92F
NORTHERLY IS     N/A     75  68  78 S5          N/A
$$

WIZ051-052-058>065-066-070>072-310600-
SOUTHEAST WISCONSIN

CITY           SKY/WX    TMP DP  RH WIND       PRES   REMARKS
MILWAUKEE      PTCLDY    71  66  84 SW5       29.89S
KENOSHA*       PTCLDY    67  65  93 SW7       29.90S
RACINE*        CLEAR     71  65  81 SW5       29.91R
BURLINGTON     CLEAR     63  62  99 CALM      29.91R FOG
WAUKESHA       MOCLDY    66  64  94 W3        29.91R
WEST BEND      MOCLDY    64  61  88 CALM      29.90R
$$

INZ001>003-010>013-019-020-310600-
NORTHWEST INDIANA

CITY           SKY/WX    TMP DP  RH WIND       PRES   REMARKS
GARY*          CLOUDY    72  68  88 CALM      29.92F
MICHIGAN CITY* NOT AVBL
RENSSELAER*    NOT AVBL
VALPARAISO     CLOUDY    69  65  86 S7        29.94F
$$

LMZ740>746-310600-
SOUTHERN LAKE MICHIGAN

STATION/POSITION TIME  SKY/WX   TEMP WIND        PRES    VSBY
                                AIR  DIR/SP/G
                 (UTC)          (F)  (DEG/KT/KT) (MB)    (MI)
HARRISON CRIB    0500            75  190/ 12/ 13   N/A
BURNHAM HARBOR   0500            75  230/  3/ 10   N/A
CALUMET HARBOR   0500            73  220/  3/  7 1012.0F
BURNS HARBOR     NOT AVBL
MICHIGAN CITY    0500            71  170/ 11/ 14   N/A
$$

ABBREVIATIONS USED IN REMARKS
   TC - TEMPERATURE IN CELSIUS
  WCI - WIND CHILL INDEX
   HX - HEAT INDEX
  VSB - VISIBILITY
$$



USA.gov is the U.S. government's official web portal to all federal, state and local government web resources and services.